OPS 4682 DEB, 49110

Orbit data source: Space-Track

OPS 4682 DEB, 49110 is space debris in LEO originally from a launch on Sat, 03 Apr 1965 UTC launched from the Air Force Western Test Range (AFWTR). Debris objects in space refer to the collection of defunct objects orbiting the Earth. Examples of debris include non-operational satellites, rocket bodies, and fragments generated from explosions, collisions, or faulty payload assembly.

Loading next visibility...
Identifier
49110, 1965-027FT
Orbit
LEO
Country
Flag of USUS
Related business
Manufacturer
Unknown
Mission
Spacecraft
Bus & Motor
Unknown
Mass
Unknown
Launch date (UTC)
1965-04-03 (61 years ago)
Launch vehicle
Unknown
Launch site
Air Force Western Test Range (AFWTR)
Object type
Payload
Rocket body
Debris
Shape & HBR
Unknown shape, 0.1 m
Radar Cross Section
Medium (>0.1 m² and <1 m²)

Expand to show TLE details & history
Last TLE update: 2 days ago

TLE from 2 days ago
0 OPS 4682 DEB
1 49110U 65027FT  26262.58745281 -.00000157  00000-0 -55338-3 0  9995
2 49110  90.2605  15.0922 0040773 141.1817 219.2246 12.99153082448598
Epoch: 2026-09-19T14:05Z
TLE epoch observation values (Epoch: 2026-09-19T14:05:55.922Z)
Latitude
-0.00002°
Longitude
165.11535°
Altitude
1,292.487 km
Speed
7.199 km/s
True Right ascension
01h 00m 22s
True Declination
0° 00' 00"
Sunlit
Object was in full shadow at epoch
Visualization orbit readout
Latitude
Unknown
Longitude
Unknown
Altitude
Unknown
Speed
Unknown
Apparent Right ascension
Unknown
Apparent Declination
Unknown
Sunlit
N/A
Visualization observer readout
Local Sidereal Time
08:59:06
Azimuth
Unknown
Elevation
Unknown
Doppler factor
Unknown
Orbital elements
Apogee altitude
1,293.688 km
Perigee altitude
1,231.382 km
Semi-major axis
7,640.672 km
Eccentricity
0.00408
Inclination
90.2605°
RAAN
15.0922°
Arg. of periapsis
141.1817°
True anomaly
218.93031°
Mean anomaly
219.2246°
Eccentric anomaly
219.07734°
Mean motion
3.24972 °/min
Orbital period
110.78 mins
BSTAR
-0.00055338
Loading maneuver chart data...
Computing Atmospheric mass density...
Loading historical data...
Loading historical data...
Loading historical data...
Loading historical data...
Loading historical data...
Loading historical data...
Loading historical data...

Documentation

Showing up to 5 results
|